カタログに戻る

KUIPER-00234

運用中通信LEO
NORAD 68581·PAYLOAD·🇺🇸 United States

打ち上げ Apr 4, 2026 から Cape Canaveral Space Force Station

Loading…

次のパス (今後24時間)

TLE

最新Source: CelesTrak SupGP

元期: Sep 14, 2026, 21:40 UTC

1 68581C 26072J   26257.90331019 -.00015558  00000+0 -20369-2 0  2577
2 68581  51.8984 153.9142 0001273  82.7580 243.1050 14.79939406    11

AllMySatでKUIPER-00234をリアルタイム追跡

Download on the App Store